Location: Grandview
(34.8900°N, 117.1058°W)
Time: 22:16:44
(UTC-08:00)

N. Korean satellite - Pass Details

Date: 16 October 2017
Orbit: 461 x 513 km, 97.2° (Epoch: 14 December)

Event Time Altitude Azimuth Distance (km) Brightness Sun altitude
Rises 18:44:55 0° 161° (SSE) 2,542 10.1 -7.5°
Reaches altitude 10° 18:47:00 10° 158° (SSE) 1,657 9.1 -8.0°
Maximum altitude 18:50:31 64° 77° (ENE) 534 6.5 -8.7°
Drops below altitude 10° 18:54:00 10° 356° (N) 1,640 9.3 -9.4°
Sets 18:56:03 0° 353° (N) 2,514 10.2 -9.8°
